GAP2776 RPSP-RPLL

Flight info

Callsign GAP2776
Flight time N/A
Altitude 34000
Route LAMOK2P LAMOK B473 LAIYA LAIYA3R
Aircraft A320/M-SDE3FGHIRWY/LB1

Departure

Time N/A
Airport Bohol-Panglao International Airport (RPSP)

Arrival

Time 2026-05-07 13:54
Airport Ninoy Aquino International Airport (RPLL)
Time Latitude Longitude Altitude Speed Heading
2026-05-07 13:20 11.80719 122.61346 33871 ft 458 kts 326°
2026-05-07 13:20 11.83359 122.59567 33871 ft 458 kts 326°
2026-05-07 13:20 11.87796 122.56576 33871 ft 458 kts 326°
2026-05-07 13:21 11.93979 122.52406 33871 ft 458 kts 326°
2026-05-07 13:21 11.99302 122.48814 33871 ft 458 kts 326°
2026-05-07 13:22 12.04611 122.45229 33871 ft 458 kts 326°
2026-05-07 13:22 12.09930 122.41637 33871 ft 458 kts 326°
2026-05-07 13:23 12.15249 122.38043 33871 ft 458 kts 326°
2026-05-07 13:23 12.20552 122.34457 33871 ft 458 kts 326°
2026-05-07 13:24 12.25878 122.30856 33871 ft 458 kts 326°
2026-05-07 13:24 12.31168 122.27274 33871 ft 458 kts 326°
2026-05-07 13:25 12.36483 122.23675 33871 ft 458 kts 326°
2026-05-07 13:25 12.41752 122.20043 33877 ft 459 kts 325°
2026-05-07 13:26 12.47014 122.16380 33888 ft 458 kts 325°
2026-05-07 13:26 12.52268 122.12726 33894 ft 458 kts 325°
2026-05-07 13:27 12.57529 122.09068 33897 ft 458 kts 325°
2026-05-07 13:27 12.62800 122.05402 33897 ft 458 kts 325°
2026-05-07 13:28 12.68066 122.01739 33897 ft 458 kts 325°
2026-05-07 13:28 12.73336 121.98071 33897 ft 458 kts 325°
2026-05-07 13:29 12.78604 121.94402 33897 ft 458 kts 325°
2026-05-07 13:29 12.83865 121.90736 33897 ft 458 kts 325°
2026-05-07 13:30 12.89116 121.87075 33897 ft 458 kts 325°
2026-05-07 13:30 12.94388 121.83398 33856 ft 457 kts 325°
2026-05-07 13:31 12.97005 121.81573 33338 ft 457 kts 325°
2026-05-07 13:31 12.99626 121.79743 32311 ft 464 kts 325°
2026-05-07 13:31 13.02303 121.77874 31305 ft 468 kts 325°
2026-05-07 13:31 13.04999 121.75992 30471 ft 468 kts 325°
2026-05-07 13:32 13.07650 121.74139 29627 ft 469 kts 325°
2026-05-07 13:32 13.10371 121.72239 28761 ft 469 kts 325°
2026-05-07 13:32 13.13065 121.70357 27903 ft 468 kts 325°
2026-05-07 13:32 13.15731 121.68494 27054 ft 467 kts 324°
2026-05-07 13:33 13.18408 121.66623 26200 ft 466 kts 324°
2026-05-07 13:33 13.21053 121.64774 25353 ft 464 kts 324°
2026-05-07 13:33 13.23727 121.62904 24494 ft 463 kts 324°
2026-05-07 13:33 13.26379 121.61048 23638 ft 460 kts 324°
2026-05-07 13:34 13.29007 121.59208 22787 ft 458 kts 324°
2026-05-07 13:34 13.34248 121.55537 21072 ft 452 kts 324°
2026-05-07 13:34 13.36767 121.53772 20240 ft 449 kts 324°
2026-05-07 13:35 13.39300 121.51997 19398 ft 446 kts 324°
2026-05-07 13:35 13.41845 121.50212 18546 ft 443 kts 324°
2026-05-07 13:35 13.43727 121.48892 17912 ft 441 kts 324°
2026-05-07 13:35 13.45426 121.47701 17337 ft 438 kts 324°
2026-05-07 13:36 13.48371 121.45634 16435 ft 432 kts 324°
2026-05-07 13:36 13.50797 121.43933 16006 ft 419 kts 324°
2026-05-07 13:36 13.53162 121.42275 15891 ft 399 kts 324°
2026-05-07 13:36 13.55413 121.40697 15887 ft 378 kts 324°
2026-05-07 13:37 13.57507 121.39228 15884 ft 360 kts 324°
2026-05-07 13:37 13.59539 121.37806 15882 ft 342 kts 324°
2026-05-07 13:37 13.61449 121.36471 15881 ft 325 kts 323°
2026-05-07 13:37 13.63274 121.35194 15884 ft 314 kts 323°
2026-05-07 13:38 13.65069 121.33935 15888 ft 313 kts 323°
2026-05-07 13:38 13.66879 121.32666 15889 ft 313 kts 323°
2026-05-07 13:38 13.68665 121.31400 15887 ft 312 kts 320°
2026-05-07 13:38 13.70348 121.30012 15890 ft 312 kts 319°
2026-05-07 13:39 13.72020 121.28623 15890 ft 312 kts 319°
2026-05-07 13:39 13.73741 121.27240 15880 ft 312 kts 320°
2026-05-07 13:39 13.75472 121.25888 15544 ft 313 kts 321°
2026-05-07 13:39 13.77217 121.24551 15094 ft 313 kts 321°
2026-05-07 13:40 13.78969 121.23225 14644 ft 313 kts 322°
2026-05-07 13:40 13.80721 121.21908 14194 ft 313 kts 322°
2026-05-07 13:40 13.82471 121.20596 13744 ft 312 kts 322°
2026-05-07 13:40 13.84213 121.19293 13296 ft 311 kts 322°
2026-05-07 13:41 13.85983 121.17970 12838 ft 310 kts 322°
2026-05-07 13:41 13.87694 121.16692 12394 ft 308 kts 322°
2026-05-07 13:41 13.89438 121.15389 11939 ft 307 kts 322°
2026-05-07 13:41 13.91159 121.14105 11487 ft 305 kts 322°
2026-05-07 13:42 13.92871 121.12830 11036 ft 304 kts 322°
2026-05-07 13:42 13.94534 121.11588 10595 ft 302 kts 322°
2026-05-07 13:42 13.96259 121.10299 10136 ft 301 kts 322°
2026-05-07 13:42 13.97921 121.09056 9691 ft 300 kts 322°
2026-05-07 13:43 13.99621 121.07786 9235 ft 300 kts 321°
2026-05-07 13:43 14.01296 121.06531 8785 ft 299 kts 321°
2026-05-07 13:43 14.02996 121.05259 8328 ft 299 kts 321°
2026-05-07 13:43 14.04667 121.04009 7879 ft 298 kts 322°
2026-05-07 13:44 14.06338 121.02758 7426 ft 298 kts 322°
2026-05-07 13:44 14.08008 121.01508 6977 ft 298 kts 322°
2026-05-07 13:44 14.09664 121.00269 6532 ft 298 kts 322°
2026-05-07 13:44 14.11322 120.99028 6118 ft 296 kts 322°
2026-05-07 13:45 14.12987 120.97783 5999 ft 285 kts 322°
2026-05-07 13:45 14.14578 120.96592 5994 ft 284 kts 322°
2026-05-07 13:45 14.16162 120.95407 5988 ft 274 kts 322°
2026-05-07 13:45 14.17719 120.94321 5971 ft 264 kts 327°
2026-05-07 13:46 14.19301 120.93367 5853 ft 262 kts 328°
2026-05-07 13:46 14.20908 120.92422 5712 ft 263 kts 329°
2026-05-07 13:46 14.22498 120.91489 5556 ft 263 kts 329°
2026-05-07 13:46 14.24069 120.90566 5366 ft 259 kts 328°
2026-05-07 13:47 14.25618 120.89654 5179 ft 251 kts 328°
2026-05-07 13:47 14.27080 120.88790 5133 ft 238 kts 328°
2026-05-07 13:47 14.28497 120.87958 5012 ft 234 kts 329°
2026-05-07 13:47 14.29922 120.87130 4752 ft 234 kts 329°
2026-05-07 13:48 14.31321 120.86322 4490 ft 232 kts 329°
2026-05-07 13:48 14.32728 120.85506 4227 ft 231 kts 330°
2026-05-07 13:48 14.34124 120.84698 3966 ft 230 kts 329°
2026-05-07 13:48 14.35517 120.83894 3705 ft 228 kts 330°
2026-05-07 13:49 14.36889 120.83098 3449 ft 227 kts 329°
2026-05-07 13:49 14.38359 120.82503 3153 ft 228 kts 356°
2026-05-07 13:49 14.39917 120.82806 3003 ft 232 kts 31°
2026-05-07 13:49 14.41054 120.83906 2997 ft 219 kts 59°
2026-05-07 13:50 14.41538 120.84790 3055 ft 204 kts 66°
2026-05-07 13:50 14.41938 120.85635 3074 ft 189 kts 67°
2026-05-07 13:51 14.44362 120.90260 2208 ft 142 kts 64°
2026-05-07 13:51 14.44860 120.91155 2028 ft 141 kts 64°
2026-05-07 13:51 14.45346 120.92028 1856 ft 140 kts 63°
2026-05-07 13:52 14.45838 120.92909 1650 ft 140 kts 63°
2026-05-07 13:52 14.46323 120.93782 1481 ft 141 kts 64°
2026-05-07 13:52 14.46815 120.94666 1289 ft 140 kts 63°
2026-05-07 13:52 14.47292 120.95522 1098 ft 137 kts 64°
2026-05-07 13:53 14.47765 120.96375 916 ft 136 kts 63°
2026-05-07 13:53 14.48236 120.97223 732 ft 134 kts 63°
2026-05-07 13:53 14.48695 120.98047 557 ft 136 kts 63°
2026-05-07 13:53 14.49172 120.98907 434 ft 136 kts 63°
2026-05-07 13:54 14.49643 120.99754 178 ft 135 kts 63°
2026-05-07 13:54 14.50103 121.00586 87 ft 128 kts 62°
2026-05-07 13:54 14.50419 121.01160 84 ft 48 kts 59°
2026-05-07 13:54 14.50486 121.01278 84 ft 11 kts 60°
2026-05-07 13:55 14.50528 121.01356 84 ft 13 kts 61°
2026-05-07 13:55 14.50573 121.01444 84 ft 14 kts 63°
2026-05-07 13:55 14.50625 121.01538 84 ft 16 kts 60°
2026-05-07 13:55 14.50693 121.01636 84 ft 17 kts 52°
2026-05-07 13:56 14.50779 121.01728 84 ft 18 kts 40°
2026-05-07 13:56 14.50860 121.01783 84 ft 11 kts
2026-05-07 13:56 14.50890 121.01727 84 ft 11 kts 258°
2026-05-07 13:56 14.50887 121.01714 84 ft 0 kts 254°
2026-05-07 13:57 14.50877 121.01690 84 ft 7 kts 240°
2026-05-07 13:57 14.50834 121.01614 84 ft 16 kts 240°
2026-05-07 13:57 14.50765 121.01492 84 ft 21 kts 242°
2026-05-07 13:57 14.50702 121.01375 84 ft 16 kts 248°